[[{"header":{"parameterUnit":"m.s-1","parameterCategory":1,"la1":30.2991,"la2":30.254,"lo1":-89.0895,"lo2":-89.0444,"dy":0.0017,"dx":0.0017,"nx":28,"ny":28,"refTime":"2024-10-15T03:00:00:Z","depth":0,"parameterNumber":2,"parameterNumberName":"U-component_of_WINDS"},"data":[0,0,0,0,0,0,0,0,0,0,0,0,0,0,0,0,0,0,0,0,0,0,0,0,0,0,0,0,0,0,0,0,0,0,0,0,0,0,0,0,0,0,0,0,0,0,0,0,0,0,0,0,0,0,0,0,0,0,-3.4481,-3.4481,0,-3.4495,-3.4495,-3.4495,-3.4521,-3.4522,-3.4522,-3.4523,-3.4533,-3.4533,-3.4533,0,0,0,0,0,0,0,0,0,0,0,0,0,-3.4475,-3.4475,-3.4481,-3.4481,-3.4481,-3.4495,-3.4495,-3.4495,-3.4521,-3.4522,-3.4522,-3.4523,-3.4533,-3.4533,-3.4533,0,0,0,0,0,0,0,0,0,0,0,0,0,-3.4482,-3.4475,-3.4481,-3.4496,-3.4498,-3.4495,-3.4495,-3.4495,-3.4521,-3.4522,-3.4522,-3.4523,-3.4533,-3.4533,-3.4533,-3.4515,0,0,-3.4532,-3.4532,0,0,0,0,0,0,0,0,-3.4481,-3.4482,-3.4494,-3.4495,-3.4497,-3.4507,-3.4497,-3.4502,-3.4521,-3.4512,-3.4523,-3.4524,-3.4524,-3.4524,-3.4525,-3.4516,-3.4516,-3.4532,-3.4532,-3.4531,-3.4531,0,0,0,0,0,0,0,-3.4481,-3.4482,-3.4486,-3.4494,-3.4496,-3.4501,-3.4503,-3.4498,-3.4513,-3.4513,-3.4515,-3.4516,-3.4525,-3.4525,-3.4525,-3.4516,-3.4532,-3.4531,-3.4531,-3.4531,-3.4493,-3.4493,0,0,0,0,0,0,-3.4479,-3.4481,-3.4486,-3.4487,-3.4491,-3.4501,-3.4503,-3.4503,-3.4513,-3.4516,-3.4516,-3.4517,-3.4525,-3.4526,-3.4526,-3.4505,-3.4531,-3.4531,-3.4531,-3.4494,-3.4493,-3.4492,0,0,0,0,0,0,-3.4478,-3.4479,-3.4485,-3.4485,-3.4486,-3.45,-3.45,-3.4503,-3.4503,-3.4515,-3.4518,-3.4513,-3.4526,-3.4526,-3.4518,-3.4506,-3.4531,-3.4531,-3.4495,-3.4494,-3.4493,-3.4464,0,0,0,0,0,0,-3.4478,-3.4479,-3.4472,-3.4484,-3.4486,-3.4478,-3.4499,-3.4503,-3.4503,-3.4506,-3.4514,-3.4516,-3.4527,-3.4518,-3.4518,-3.4506,-3.453,-3.4496,-3.4495,-3.4493,-3.4466,-3.4462,-3.4459,0,0,0,0,0,-3.4478,-3.4463,-3.4472,-3.4472,-3.4479,-3.4477,-3.4478,-3.4491,-3.4502,-3.4496,-3.4504,-3.4516,-3.4508,-3.4517,-3.4517,-3.4505,-3.4497,-3.4495,-3.4493,-3.4468,-3.4463,-3.4459,0,0,0,0,0,0,-3.4448,-3.4465,-3.4475,-3.4464,-3.4469,-3.4482,-3.4473,-3.4486,-3.4487,-3.4489,-3.4504,-3.4506,-3.4495,-3.45,-3.4509,-3.4489,-3.4505,-3.4503,-3.4485,-3.4481,-3.4477,-3.4475,-3.453,0,0,0,0,0,-3.444,-3.4439,-3.4453,-3.4442,-3.4444,-3.4459,-3.4458,-3.4469,-3.4474,-3.4476,-3.4483,-3.4487,-3.4486,-3.4484,-3.4483,-3.4468,-3.447,-3.446,-3.4456,-3.4453,-3.445,-3.4442,-3.4437,-3.4486,-3.4486,-3.4486,0,0,-3.4423,-3.4433,-3.443,-3.4436,-3.4441,-3.4438,-3.446,-3.4456,-3.4453,-3.4475,-3.4467,-3.4473,-3.4479,-3.4467,-3.4462,-3.447,-3.4438,-3.4451,-3.4448,-3.4447,-3.4439,-3.4435,-3.443,-3.4485,-3.4485,-3.4486,0,0,-3.4391,-3.4399,-3.439,-3.4396,-3.4404,-3.4414,-3.4412,-3.4423,-3.4428,-3.4422,-3.4438,-3.4435,-3.4432,-3.4435,-3.4436,-3.4408,-3.4419,-3.4408,-3.4386,-3.4378,-3.4374,-3.4371,-3.4359,-3.4354,-3.4405,-3.4405,-3.4405,0,-3.4369,-3.4366,-3.4384,-3.4379,-3.438,-3.4402,-3.4393,-3.4397,-3.4404,-3.4404,-3.4414,-3.4412,-3.4417,-3.4406,-3.4399,-3.44,-3.4397,-3.4405,-3.4374,-3.437,-3.4367,-3.4356,-3.4352,-3.4404,-3.4404,-3.4404,-3.4404,0,-3.4337,-3.4335,-3.4327,-3.4335,-3.4336,-3.4329,-3.4345,-3.4344,-3.4355,-3.4364,-3.4356,-3.4364,-3.4365,-3.4364,-3.4374,-3.4354,-3.4359,-3.4371,-3.4387,-3.4361,-3.435,-3.4346,-3.4401,-3.4402,-3.4402,-3.4403,0,0,-3.4282,-3.4303,-3.4299,-3.4303,-3.4315,-3.4313,-3.4308,-3.431,-3.4308,-3.4313,-3.4307,-3.4306,-3.4318,-3.4319,-3.433,-3.4323,-3.4298,-3.4336,-3.4337,-3.4327,-3.4275,-3.4263,-3.4258,-3.4307,-3.4307,-3.4306,-3.4274,0,-3.425,-3.4242,-3.4259,-3.4246,-3.4243,-3.4266,-3.4261,-3.4267,-3.4276,-3.4274,-3.4284,-3.4282,-3.4299,-3.43,-3.4294,-3.4302,-3.4288,-3.4306,-3.43,-3.4299,-3.4294,-3.4253,-3.4241,-3.421,-3.427,-3.427,-3.4269,0,-3.4211,-3.4216,-3.4203,-3.4217,-3.4216,-3.4211,-3.4215,-3.4215,-3.4222,-3.4229,-3.4232,-3.4246,-3.424,-3.4258,-3.425,-3.4262,-3.4261,-3.4265,-3.4264,-3.4261,-3.428,-3.4246,-3.42,-3.4195,-3.4263,-3.4264,-3.4264,0,-3.4169,-3.4173,-3.4165,-3.4168,-3.4185,-3.4181,-3.4187,-3.4197,-3.4197,-3.4201,-3.4201,-3.4204,-3.4205,-3.4206,-3.422,-3.4232,-3.4209,-3.4229,-3.4213,-3.4212,-3.4204,-3.4203,-3.4154,-3.4208,-3.4209,-3.4209,-3.4209,0,-3.413,-3.412,-3.4147,-3.4142,-3.4132,-3.4153,-3.4142,-3.415,-3.4159,-3.4155,-3.4176,-3.4171,-3.4192,-3.419,-3.4201,-3.4191,-3.4192,-3.4196,-3.4198,-3.4192,-3.4191,-3.4189,-3.419,-3.4207,-3.4208,-3.4208,-3.4208,0,-3.4079,-3.4097,-3.409,-3.4108,-3.4112,-3.4104,-3.4118,-3.4114,-3.4126,-3.4121,-3.4121,-3.4138,-3.4137,-3.4153,-3.4154,-3.4162,-3.4145,-3.4153,-3.4143,-3.4144,-3.4126,-3.4126,-3.4071,-3.4064,-3.4126,-3.4125,-3.4125,0,-3.4051,-3.4044,-3.4062,-3.4062,-3.4068,-3.4068,-3.4069,-3.409,-3.4091,-3.4101,-3.4095,-3.4096,-3.4097,-3.4094,-3.4106,-3.4107,-3.4113,-3.4094,-3.4113,-3.4107,-3.411,-3.4108,-3.4107,-3.4088,-3.4088,-3.4087,-3.4087,0,-3.3998,-3.4008,-3.401,-3.4016,-3.4018,-3.4023,-3.4029,-3.4027,-3.405,-3.405,-3.405,-3.4051,-3.4054,-3.4054,-3.4058,-3.4064,-3.4078,-3.4081,-3.4077,-3.4069,-3.4062,-3.4063,-3.4128,-3.4081,-3.4082,-3.4082,-3.4082,-3.4083,-3.3956,-3.3951,-3.3963,-3.3965,-3.3973,-3.3979,-3.3975,-3.3988,-3.3989,-3.3993,-3.4006,-3.4004,-3.4013,-3.402,-3.4025,-3.4022,-3.4032,-3.4026,-3.4024,-3.4022,-3.4017,-3.4066,-3.4024,-3.4024,-3.4024,-3.4024,-3.4024,0,-3.3901,-3.3911,-3.3913,-3.3922,-3.3924,-3.3941,-3.395,-3.3949,-3.3947,-3.3955,-3.3958,-3.3957,-3.3958,-3.3972,-3.3974,-3.3969,-3.3976,-3.3969,-3.3967,-3.3968,-3.401,-3.4012,-3.3963,-3.3963,-3.3963,-3.3963,-3.3963,-3.3963,-3.3872,-3.3865,-3.3877,-3.3873,-3.3883,-3.3882,-3.3885,-3.3891,-3.3898,-3.3897,-3.3899,-3.3909,-3.3919,-3.3922,-3.3924,-3.3928,-3.3926,-3.3916,-3.3921,-3.396,-3.3965,-3.3971,-3.3973,-3.3916,-3.3916,-3.3879,-3.3879,-3.3879]},{"header":{"parameterUnit":"m.s-1","parameterCategory":1,"la1":30.2991,"la2":30.254,"lo1":-89.0895,"lo2":-89.0444,"dy":0.0017,"dx":0.0017,"nx":28,"ny":28,"refTime":"2024-10-15T03:00:00:Z","depth":0,"parameterNumber":3,"parameterNumberName":"V-component_of_WINDS"},"data":[0,0,0,0,0,0,0,0,0,0,0,0,0,0,0,0,0,0,0,0,0,0,0,0,0,0,0,0,0,0,0,0,0,0,0,0,0,0,0,0,0,0,0,0,0,0,0,0,0,0,0,0,0,0,0,0,0,0,-1.7525,-1.7525,0,-1.7486,-1.7486,-1.7486,-1.7407,-1.7405,-1.7404,-1.7402,-1.7364,-1.7364,-1.7365,0,0,0,0,0,0,0,0,0,0,0,0,0,-1.7533,-1.7533,-1.7525,-1.7525,-1.7525,-1.7487,-1.7486,-1.7485,-1.7407,-1.7405,-1.7403,-1.7402,-1.7364,-1.7364,-1.7365,0,0,0,0,0,0,0,0,0,0,0,0,0,-1.7516,-1.7533,-1.7526,-1.7481,-1.7476,-1.7487,-1.7486,-1.7485,-1.7408,-1.7405,-1.7403,-1.7401,-1.7364,-1.7364,-1.7365,-1.7416,0,0,-1.7367,-1.7367,0,0,0,0,0,0,0,0,-1.7517,-1.7515,-1.7488,-1.7484,-1.7479,-1.7449,-1.7474,-1.7462,-1.7408,-1.7434,-1.7402,-1.74,-1.7394,-1.7392,-1.739,-1.7414,-1.7412,-1.7367,-1.7367,-1.7368,-1.7368,0,0,0,0,0,0,0,-1.7518,-1.7517,-1.751,-1.7488,-1.7482,-1.7463,-1.7458,-1.7472,-1.7428,-1.7431,-1.7426,-1.7422,-1.7391,-1.739,-1.7389,-1.7412,-1.7367,-1.7367,-1.7368,-1.7368,-1.7475,-1.7477,0,0,0,0,0,0,-1.7526,-1.7518,-1.7511,-1.7509,-1.7492,-1.7465,-1.7459,-1.7461,-1.7427,-1.742,-1.7424,-1.7419,-1.739,-1.7388,-1.7387,-1.7443,-1.7368,-1.7368,-1.7369,-1.7472,-1.7475,-1.7478,0,0,0,0,0,0,-1.7526,-1.7526,-1.7513,-1.7512,-1.7509,-1.7467,-1.747,-1.7462,-1.746,-1.7422,-1.7414,-1.743,-1.7388,-1.7386,-1.7409,-1.7441,-1.7368,-1.7369,-1.7469,-1.7473,-1.7476,-1.7558,0,0,0,0,0,0,-1.7527,-1.7526,-1.7545,-1.7513,-1.7509,-1.7535,-1.7472,-1.7463,-1.7461,-1.7453,-1.7425,-1.7419,-1.7386,-1.7408,-1.741,-1.7441,-1.737,-1.7466,-1.7471,-1.7475,-1.7552,-1.7564,-1.7574,0,0,0,0,0,-1.7527,-1.757,-1.7546,-1.7546,-1.7532,-1.7537,-1.7535,-1.7496,-1.7464,-1.7482,-1.7458,-1.742,-1.7438,-1.7411,-1.7412,-1.7444,-1.7464,-1.747,-1.7475,-1.7547,-1.7561,-1.7574,0,0,0,0,0,0,-1.7608,-1.7565,-1.7538,-1.7572,-1.7559,-1.7524,-1.7546,-1.7513,-1.7509,-1.7502,-1.7454,-1.7449,-1.7478,-1.7463,-1.7435,-1.7491,-1.7445,-1.7451,-1.7499,-1.7513,-1.7523,-1.7526,-1.737,0,0,0,0,0,-1.7629,-1.7637,-1.76,-1.7633,-1.7628,-1.7589,-1.759,-1.7561,-1.7545,-1.7539,-1.7516,-1.7503,-1.7506,-1.7508,-1.7509,-1.755,-1.7542,-1.7572,-1.7583,-1.7592,-1.7597,-1.7617,-1.763,-1.7496,-1.7496,-1.7496,0,0,-1.7674,-1.7652,-1.766,-1.7649,-1.7635,-1.7644,-1.7584,-1.7597,-1.7603,-1.7541,-1.7561,-1.7544,-1.7526,-1.7558,-1.7571,-1.7547,-1.7633,-1.7599,-1.7607,-1.7607,-1.7624,-1.7637,-1.7648,-1.7499,-1.7499,-1.7498,0,0,-1.776,-1.7745,-1.777,-1.7758,-1.7738,-1.7711,-1.7717,-1.7688,-1.7674,-1.7693,-1.7646,-1.7653,-1.7659,-1.7648,-1.7643,-1.7725,-1.7689,-1.7726,-1.7783,-1.7803,-1.7813,-1.7822,-1.7851,-1.7861,-1.7732,-1.7732,-1.7732,0,-1.7819,-1.783,-1.7788,-1.7803,-1.7799,-1.7743,-1.7769,-1.7759,-1.774,-1.7739,-1.7712,-1.7717,-1.7701,-1.7729,-1.7749,-1.7748,-1.7753,-1.7729,-1.7815,-1.7824,-1.7832,-1.7858,-1.7869,-1.7737,-1.7736,-1.7736,-1.7735,0,-1.7903,-1.7912,-1.7935,-1.7917,-1.7916,-1.7937,-1.7897,-1.7902,-1.7873,-1.7849,-1.7869,-1.7848,-1.7843,-1.7848,-1.782,-1.7872,-1.7857,-1.7824,-1.7776,-1.785,-1.7874,-1.7883,-1.7743,-1.7742,-1.774,-1.7739,0,0,-1.8038,-1.7996,-1.8006,-1.7997,-1.797,-1.7976,-1.7995,-1.7989,-1.7993,-1.7982,-1.7996,-1.8002,-1.797,-1.7965,-1.7935,-1.7953,-1.8018,-1.7917,-1.7916,-1.7935,-1.8073,-1.8097,-1.811,-1.7994,-1.7996,-1.7998,-1.8074,0,-1.8117,-1.8145,-1.8107,-1.8143,-1.815,-1.8097,-1.8113,-1.8098,-1.8077,-1.808,-1.8057,-1.8061,-1.802,-1.8016,-1.8031,-1.8007,-1.8045,-1.8001,-1.8006,-1.8007,-1.8011,-1.8122,-1.8148,-1.8221,-1.8083,-1.8084,-1.8086,0,-1.8213,-1.8206,-1.8243,-1.8214,-1.8215,-1.823,-1.8221,-1.8225,-1.8208,-1.8191,-1.8185,-1.815,-1.8166,-1.812,-1.8141,-1.8112,-1.8112,-1.81,-1.8102,-1.81,-1.805,-1.8122,-1.8243,-1.8254,-1.81,-1.8099,-1.8098,0,-1.8307,-1.8307,-1.8328,-1.8322,-1.8289,-1.8301,-1.8288,-1.8268,-1.8267,-1.826,-1.8258,-1.8253,-1.825,-1.8248,-1.8212,-1.8182,-1.8237,-1.8188,-1.8223,-1.8224,-1.8235,-1.8235,-1.8357,-1.8238,-1.8238,-1.8237,-1.8237,0,-1.8398,-1.8423,-1.8369,-1.8383,-1.8408,-1.8365,-1.8392,-1.8373,-1.8356,-1.8365,-1.8319,-1.8329,-1.8282,-1.8286,-1.8259,-1.8279,-1.8279,-1.8265,-1.8257,-1.8268,-1.827,-1.8267,-1.826,-1.824,-1.824,-1.8239,-1.8239,0,-1.8506,-1.8472,-1.8492,-1.8459,-1.8451,-1.8471,-1.8443,-1.8454,-1.843,-1.8441,-1.8442,-1.8404,-1.8406,-1.8371,-1.8367,-1.8348,-1.8381,-1.8365,-1.8387,-1.8381,-1.8417,-1.8414,-1.854,-1.8554,-1.8428,-1.8429,-1.843,0,-1.8566,-1.8583,-1.8552,-1.8555,-1.8543,-1.8548,-1.8546,-1.8505,-1.8505,-1.8487,-1.85,-1.8499,-1.8495,-1.8502,-1.8474,-1.8471,-1.8453,-1.8498,-1.8452,-1.8463,-1.8452,-1.8451,-1.8452,-1.8507,-1.8509,-1.851,-1.8511,0,-1.8676,-1.8658,-1.8657,-1.8651,-1.865,-1.8643,-1.8633,-1.8637,-1.8592,-1.8595,-1.8596,-1.8594,-1.8589,-1.8589,-1.858,-1.8566,-1.8531,-1.8526,-1.8533,-1.8544,-1.8556,-1.8549,-1.8411,-1.8523,-1.8522,-1.8521,-1.852,-1.852,-1.876,-1.8773,-1.8753,-1.8753,-1.8741,-1.8733,-1.8741,-1.8718,-1.8719,-1.8712,-1.8687,-1.8693,-1.8676,-1.866,-1.865,-1.8654,-1.8632,-1.8643,-1.8646,-1.8649,-1.8655,-1.8556,-1.8652,-1.8652,-1.8652,-1.8651,-1.8651,0,-1.8866,-1.8851,-1.8852,-1.8839,-1.884,-1.8807,-1.8794,-1.8797,-1.8802,-1.8789,-1.8786,-1.8788,-1.8787,-1.876,-1.8755,-1.8764,-1.8748,-1.8764,-1.8762,-1.8759,-1.8675,-1.8669,-1.8777,-1.8777,-1.8777,-1.8777,-1.8777,-1.8777,-1.8921,-1.894,-1.8921,-1.8933,-1.8918,-1.8923,-1.8918,-1.891,-1.8899,-1.8903,-1.8902,-1.8884,-1.8864,-1.8858,-1.8856,-1.8848,-1.8848,-1.887,-1.8856,-1.8778,-1.8765,-1.8754,-1.8747,-1.887,-1.887,-1.8939,-1.894,-1.8941]}]]